Weather History for KBVY - September, 2013

Change the Weather History Date:

Wednesday, September 4, 2013

  Actual Average Record
Temperature  
Mean Temperature 70 °F -  
Max Temperature 81 °F 75 °F 89 °F (1985)
Min Temperature 59 °F 54 °F 15 °F (1975)
Cooling Degree Days 4    
Growing Degree Days 20 (Base 50)    
Moisture  
Dew Point 55 °F    
Average Humidity 62    
Maximum Humidity 87    
Minimum Humidity 39    
Precipitation  
Precipitation 0.00 in - - ()
Sea Level Pressure  
Sea Level Pressure 29.84 in    
Wind  
Wind Speed 7 mph (West)    
Max Wind Speed 13 mph    
Max Gust Speed 22 mph    
Visibility 10 miles    
Events      
Averages and records for this station are not official NWS values.
T = Trace of Precipitation, MM = Missing Value Source: NWS Daily Summary

Daily Weather History Graph

Daily Weather History Graph

Search for Another Location

Airport or City:

Trip Planner

Search our weather history database for the weather conditions in past years. The results will help you decide how hot, cold, wet, or windy it might be!

Date:

Astronomy

Sep. 04, 2013 Rise Set
Actual Time 6:12 AM EDT 7:12 PM EDT
Civil Twilight 5:43 AM EDT 7:41 PM EDT
Nautical Twilight 5:08 AM EDT 8:15 PM EDT
Astronomical Twilight 4:32 AM EDT 8:51 PM EDT
Moon 5:21 AM EDT 6:29 PM EDT
Length of Visible Light 13h 57m
Length of Day
13h 00m
Waning Crescent, 1% of the Moon is Illuminated
Sep 4
Waning Crescent
Sep 5
New
Sep 12
First Quarter
Sep 19
Full
Sep 26
Last Quarter

Hourly Weather History & Observations

Time (EDT) Temp. Heat Index Dew Point Humidity Pressure Visibility Wind Dir Wind Speed Gust Speed Precip Events Conditions
12:53 AM 64.0 °F - 55.9 °F 75% 29.78 in 10.0 mi West 5.8 mph - N/A   Clear
1:53 AM 62.1 °F - 55.9 °F 80% 29.78 in 10.0 mi West 4.6 mph - N/A   Clear
2:53 AM 61.0 °F - 55.0 °F 81% 29.78 in 10.0 mi West 5.8 mph - N/A   Clear
3:53 AM 60.1 °F - 55.0 °F 83% 29.80 in 10.0 mi West 4.6 mph - N/A   Clear
4:53 AM 59.0 °F - 55.0 °F 87% 29.81 in 10.0 mi West 5.8 mph - N/A   Clear
5:53 AM 59.0 °F - 55.0 °F 87% 29.83 in 10.0 mi West 5.8 mph - N/A   Clear
6:53 AM 59.0 °F - 55.0 °F 87% 29.84 in 10.0 mi West 4.6 mph - N/A   Clear
7:53 AM 64.0 °F - 57.0 °F 78% 29.86 in 10.0 mi West 6.9 mph - N/A   Clear
8:53 AM 68.0 °F - 57.9 °F 70% 29.86 in 10.0 mi WNW 8.1 mph - N/A   Clear
9:53 AM 72.0 °F - 57.9 °F 61% 29.86 in 10.0 mi NW 9.2 mph - N/A   Clear
10:53 AM 73.9 °F - 57.0 °F 55% 29.86 in 10.0 mi WNW 11.5 mph - N/A   Clear
11:53 AM 75.9 °F - 54.0 °F 46% 29.85 in 10.0 mi West 11.5 mph - N/A   Clear
12:53 PM 77.0 °F - 53.1 °F 43% 29.84 in 10.0 mi West 12.7 mph - N/A   Clear
1:53 PM 80.1 °F 80.0 °F 54.0 °F 40% 29.83 in 10.0 mi West 9.2 mph 21.9 mph N/A   Clear
2:53 PM 80.1 °F 80.0 °F 54.0 °F 40% 29.83 in 10.0 mi WNW 11.5 mph 16.1 mph N/A   Clear
3:53 PM 80.1 °F 80.0 °F 54.0 °F 40% 29.83 in 10.0 mi West 9.2 mph 20.7 mph N/A   Partly Cloudy
4:53 PM 80.1 °F 79.9 °F 53.1 °F 39% 29.83 in 10.0 mi WSW 9.2 mph - N/A   Clear
5:53 PM 78.1 °F - 53.1 °F 42% 29.83 in 10.0 mi WSW 10.4 mph - N/A   Clear
6:53 PM 75.0 °F - 52.0 °F 44% 29.84 in 10.0 mi West 8.1 mph - N/A   Clear
7:53 PM 73.0 °F - 52.0 °F 48% 29.86 in 10.0 mi West 5.8 mph - N/A   Clear
8:53 PM 71.1 °F - 52.0 °F 51% 29.88 in 10.0 mi WNW 4.6 mph - N/A   Clear
9:53 PM 68.0 °F - 53.1 °F 59% 29.88 in 10.0 mi West 3.5 mph - N/A   Clear
10:53 PM 63.0 °F - 53.1 °F 70% 29.89 in 10.0 mi WSW 4.6 mph - N/A   Clear
11:53 PM 64.0 °F - 54.0 °F 70% 29.88 in 10.0 mi Calm Calm - N/A   Clear